SCP
-0 0 -0 0 0 0 0 0 -0 0 -0 -0 0 -0 -0 -0 0 -0 -0 -0 -0 -0 -0 -0 0 -0 -0 -0 -0 -0 -0 -0 -0 -0 -0 -0 -0 -0 -0 -0 -0 -0 -0 -0 -0 0 0 0 0
-0 -0 0 0 0 0 0 0 -0 0 -0 -0 -0 -0 -0 0 0 -0 -0 0 -0 -0 0 0 -0 0 -0 -0 -0 -0 -0 -0 -0 -0 -0 -0 -0 -0 -0 -0 -0 -0 -0 -0 0 0 0 -0 -0
-0 0 -0 0 0 0 0 0 -0 -0 -0 -0 0 0 -0 -0 -0 -0 -0 -0 -0 0 -0 -0 -0 -0 -0 -0 -0 -0 -0 -0 -0 0 -0 -0 -0 -0 0 0 -0 0 -0 0 0 0 -0 -0 -0
0 -0 -0 0 -0 -0 -0 0 -0 -0 0 0 -0 -0 -0 0 0 -0 -0 -0 0 0 0 -0 -0 -0 0 0 -0 -0 -0 -0 0 -0 0 -0 0 -0 0 0 -0 -0 0 0 0 0 -0 -0 -0
-0 -0 -0 -0 0 -0 0 0 -0 -0 0 -0 0 -0 -0 0 -0 -0 -0 -0 0 0 0 0 -0 -0 -0 -0 -0 -0 -0 -0 0 0 -0 -0 0 0 -0 0 0 0 0 0 0 0 0 -0 -0
0 0 -0 -0 0 0 0 0 -0 -0 0 -0 0 0 0 -0 -0 -0 -0 -0 0 0 0 0 0 -0 -0 -0 -0 -0 -0 -0 -0 -0 -0 -0 -0 0 0 0 0 -0 0 0 0 0 -0 0 -0
0 0 0 0 0 0 0 0 0 -0 0 0 0 0 0 0 -0 -0 0 0 0 0 0 0 0 0 -0 -0 -0 -0 -0 0 -0 0 0 -0 -0 0 0 -0 -0 -0 -0 -0 0 0 -0 -0 -0
0 0 0 0 0 -0 -0 0 0 0 0 -0 0 0 -0 0 -0 -0 0 -0 -0 0 0 0 0 0 0 0 -0 -0 -0 0 0 0 0 0 -0 0 -0 0 0 0 -0 -0 0 0 0 0 -0
0 0 0 0 -0 -0 -0 0 0 -0 -0 0 0 0 -0 -0 -0 -0 0 0 0 0 0 0 0 0 0 0 0 -0 0 0 0 -0 0 0 0 0 -0 0 -0 -0 -0 0 0 0 0 0 0
-0 0 -0 -0 -0 0 -0 0 -0 -0 -0 0 0 -0 -0 -0 -0 -0 -0 0 0 -0 0 0 0 0 0 0 0 0 0 0 0 0 0 0 0 0 -0 -0 -0 -0 -0 -0 0 0 0 0 0
0 -0 -0 0 -0 0 -0 0 -0 -0 -0 -0 -0 -0 -0 -0 -0 -0 -0 -0 -0 -0 0 0 0 0 0 0 0 0 0 0 0 0 0 0 0 0 0 -0 -0 -0 0 0 0 0 0 0 0
0 -0 -0 -0 0 0 0 0 0 0 -0 -0 -0 -0 -0 -0 -0 -0 -0 -0 0 -0 -0 -0 -0 0 -0 0 0 -0 0 0 0 0 0 0 0 0 0 0 0 0 -0 0 0 -0 -0 -0 -0
0 -0 -0 -0 -0 -0 0 -0 -0 -0 -0 -0 -0 -0 -0 -0 -0 0 -0 0 0 -0 -0 -0 -0 -0 -0 -0 0 0 0 0 0 0 0 0 0 0 0 0 0 0 0 0 0 -0 0 -0 -0
-0 -0 -0 -0 -0 0 -0 -0 0 -0 -0 -0 -0 -0 -0 -0 -0 0 -0 -0 -0 -0 -0 -0 -0 -0 -0 -0 0 0 0 0 0 0 0 0 0 -0 -0 0 -0 0 0 0 0 -0 0 0 0
0 0 0 -0 -0 0 0 -0 0 0 0 -0 -0 -0 -0 -0 -0 -0 -0 -0 -0 0 -0 -0 -0 -0 -0 0 0 0 0 0 0 0 0 0 0 -0 0 -0 0 0 0 0 0 0 0 0 0
-0 0 0 0 -0 -0 0 -0 0 0 0 0 -0 -0 -0 -0 -0 -0 -0 -0 0 0 0 -0 0 0 0 0 0 0 0 0 0 0 0 -0 -0 0 -0 -0 0 0 0 0 0 0 0 0 -0
-0 0 0 -0 0 0 -0 0 -0 0 0 0 -0 -0 -0 0 0 -0 -0 -0 -0 0 0 -0 0 0 0 0 0 0 0 0 0 0 0 0 0 0 -0 0 0 -0 0 0 0 0 0 0 0
0 0 -0 -0 -0 0 -0 -0 -0 0 0 -0 -0 -0 -0 -0 -0 -0 -0 -0 -0 0 0 0 0 0 0 0 0 0 0 0 0 0 0 0 0 -0 0 0 -0 0 0 0 0 -0 0 0 0
0 0 0 -0 -0 0 -0 0 -0 -0 0 -0 -0 -0 -0 -0 -0 -0 -0 -0 -0 0 0 0 0 0 0 0 0 0 0 0 0 0 0 -0 0 -0 0 0 0 0 0 0 0 0 -0 0 0
0 0 -0 0 -0 0 -0 -0 0 -0 -0 -0 -0 -0 -0 -0 -0 -0 -0 -0 -0 0 0 0 -0 0 0 0 0 0 0 0 0 0 0 -0 -0 -0 -0 0 0 -0 0 0 0 0 0 0 0
0 0 0 0 0 0 0 0 -0 0 0 0 0 -0 -0 -0 -0 -0 -0 -0 -0 -0 -0 -0 0 -0 0 0 0 0 0 0 0 0 0 0 -0 -0 0 0 0 0 0 0 0 0 -0 0 -0
-0 -0 0 0 0 0 0 -0 -0 0 0 0 -0 0 -0 -0 -0 -0 -0 -0 -0 -0 -0 -0 -0 -0 -0 -0 0 0 0 0 0 0 0 0 0 -0 -0 0 -0 0 0 0 0 -0 0 0 0
-0 -0 -0 -0 0 0 -0 0 0 0 0 -0 -0 -0 -0 -0 -0 -0 -0 -0 -0 -0 0 -0 -0 -0 -0 -0 -0 0 0 0 0 0 0 0 0 -0 -0 -0 0 0 0 0 0 -0 0 0 -0
0 0 0 0 0 -0 -0 0 -0 -0 -0 0 0 -0 -0 -0 -0 -0 -0 -0 -0 -0 -0 0 0 -0 -0 -0 0 0 -0 0 0 0 0 -0 -0 -0 -0 -0 0 0 0 -0 -0 -0 -0 -0 -0
0 0 0 0 0 -0 -0 0 -0 -0 0 0 -0 -0 -0 -0 -0 -0 -0 -0 0 -0 -0 -0 0 0 -0 0 -0 0 0 -0 -0 -0 -0 -0 0 -0 -0 0 0 0 0 -0 -0 -0 -0 0 0
0 0 0 0 0 0 0 0 0 -0 0 0 -0 -0 -0 -0 -0 -0 -0 -0 -0 -0 -0 -0 -0 -0 0 0 0 0 -0 -0 -0 -0 0 0 0 -0 0 0 0 0 0 -0 -0 0 0 0 -0
-0 -0 0 0 0 0 0 -0 0 0 0 -0 0 -0 -0 -0 -0 -0 -0 -0 -0 -0 -0 -0 -0 -0 0 0 0 0 0 0 0 0 0 0 -0 -0 -0 0 -0 -0 0 -0 0 -0 0 0 0
0 0 0 0 0 0 0 -0 0 0 0 0 -0 -0 -0 0 -0 -0 -0 -0 -0 -0 0 0 -0 -0 -0 0 0 0 0 0 0 0 0 0 0 0 0 0 -0 -0 -0 -0 -0 -0 -0 -0 0
0 0 0 0 0 0 0 0 -0 0 0 -0 0 0 -0 0 -0 -0 -0 -0 -0 -0 0 0 0 0 0 0 0 0 0 0 0 0 0 0 0 0 0 0 0 0 -0 -0 0 0 -0 0 0
-0 0 0 0 0 0 0 0 -0 -0 0 -0 -0 -0 0 -0 -0 -0 -0 -0 -0 -0 0 0 0 0 0 0 0 0 0 0 0 0 0 0 0 0 0 0 0 0 -0 0 0 0 0 0 0
Wind_Speed_500mb
8 10 5 2 8 9 5 8 11 17 10 9 22 11 15 10 5 6 21 50 40 44 42 37 35 33 32 30 29 30 30 26 24 25 27 28 26 25 23 20 20 18 19 20 20 19 17 18 20
2 5 9 6 9 6 3 2 21 11 18 39 31 22 13 4 1 20 44 32 42 40 38 36 31 30 30 28 28 28 26 23 20 21 23 23 24 22 22 22 20 20 21 18 20 18 19 21 21
5 2 8 7 3 6 6 4 18 18 5 7 13 17 9 4 14 48 29 40 38 35 33 32 30 29 29 26 25 24 23 19 18 22 21 23 23 22 23 21 23 21 19 21 24 26 22 19 18
4 8 12 7 7 3 2 10 30 33 34 13 24 13 16 12 41 26 35 36 34 32 32 32 31 28 27 26 22 22 22 21 18 21 21 23 22 22 22 22 21 24 23 23 27 26 24 22 20
7 6 8 7 6 11 11 28 37 23 36 7 2 8 8 23 17 30 30 35 34 33 31 27 27 28 25 23 19 20 22 21 20 22 21 21 21 21 22 19 19 21 21 22 19 20 18 17 19
5 4 6 2 7 4 19 36 31 27 10 13 14 15 5 22 29 34 29 29 31 32 29 26 23 22 20 17 16 20 23 23 19 20 21 19 19 18 18 18 19 18 17 17 17 16 17 17 18
4 5 3 2 12 6 11 11 15 15 12 5 27 8 18 34 35 35 31 29 32 26 25 24 23 19 16 16 19 20 28 25 19 17 16 16 16 15 15 15 17 16 13 13 15 15 14 15 14
5 6 6 8 8 7 5 5 11 14 7 31 22 10 15 47 42 33 32 34 30 18 23 23 21 19 19 16 14 26 32 26 18 14 18 18 18 18 17 16 14 13 11 10 10 11 11 14 16
13 4 4 9 11 8 9 6 6 13 36 1 18 11 39 49 46 38 33 30 27 20 23 23 20 22 20 15 19 29 31 24 16 16 23 20 21 19 17 17 15 13 10 7 6 6 8 12 15
7 4 11 13 12 4 9 4 17 8 17 3 16 25 54 48 44 41 37 34 29 25 21 21 22 22 19 16 23 31 34 23 19 23 21 22 19 13 14 13 13 12 8 4 1 7 12 12 13
5 4 3 2 15 12 9 4 13 26 10 20 41 54 50 44 40 36 35 30 29 26 22 22 21 20 16 24 27 30 28 22 24 24 16 19 15 15 14 15 13 7 3 4 12 8 10 12 16
4 7 6 6 12 8 7 3 10 26 11 28 41 56 52 47 44 41 38 36 32 24 22 20 20 20 21 30 26 28 22 21 24 19 17 12 14 11 8 8 10 14 8 6 8 25 16 8 7
8 4 14 4 13 18 17 20 12 22 26 31 45 53 49 46 42 42 36 32 33 32 25 21 19 23 25 29 23 31 21 25 20 17 16 16 10 4 6 8 10 9 14 20 15 13 9 10 6
5 22 13 4 6 9 16 11 4 14 34 43 50 54 49 47 42 42 39 36 37 33 29 22 20 21 29 28 23 30 24 24 19 15 15 13 8 2 1 2 6 16 11 13 14 25 3 11 1
6 8 9 7 10 9 12 5 6 9 36 43 52 56 50 50 46 45 32 39 39 35 31 23 20 26 29 30 29 27 25 22 22 23 14 17 7 4 3 6 9 12 11 15 6 11 14 6 8
5 7 5 3 14 5 7 10 8 10 31 43 43 45 53 52 54 48 42 37 40 36 33 30 25 28 28 31 28 26 19 20 28 24 16 12 11 7 4 5 10 10 10 14 14 9 10 16 11
9 4 6 6 15 8 7 7 19 31 22 31 42 58 58 56 58 52 47 31 42 36 36 35 34 29 26 29 23 19 21 24 25 19 9 10 13 5 10 7 6 8 8 10 9 9 11 11 4
10 4 6 7 13 9 9 18 14 20 27 24 21 54 64 58 61 53 40 31 42 39 36 37 37 33 27 29 23 20 28 18 24 17 11 6 6 11 10 15 15 12 11 7 9 6 9 6 8
11 6 4 7 6 10 15 15 25 27 27 27 27 43 59 61 54 51 40 32 37 42 40 46 42 35 34 37 31 23 33 18 25 15 12 14 6 7 13 14 19 16 16 11 10 8 9 7 2
7 10 9 1 5 14 2 24 16 16 16 34 39 39 55 56 54 57 44 37 37 39 41 47 45 38 37 36 34 20 22 19 18 19 16 20 12 7 10 14 22 20 15 12 11 11 8 4 1
9 12 14 9 14 7 2 13 17 12 28 15 35 44 42 61 60 60 51 44 36 42 44 48 49 42 37 35 33 27 22 21 22 19 21 19 11 8 6 10 12 15 16 15 16 13 11 6 8
6 32 22 12 6 4 3 9 11 12 12 13 36 36 44 56 63 59 54 49 42 38 40 44 48 44 41 39 37 34 32 27 23 23 14 18 14 10 12 14 12 12 12 13 13 8 8 2 6
22 27 25 22 8 4 7 4 10 5 12 20 28 45 50 54 63 66 61 49 40 36 43 45 47 45 41 44 41 38 39 31 23 19 21 24 21 16 17 16 14 11 14 13 12 15 9 11 6
1 10 12 11 6 5 8 11 10 10 14 11 27 47 55 58 62 67 57 52 47 42 44 48 47 48 45 46 46 46 44 39 33 27 23 24 30 26 21 17 17 11 12 18 12 13 11 9 8
7 13 4 6 3 12 11 8 19 11 13 13 29 46 55 60 64 65 60 59 57 49 45 47 47 52 53 55 57 53 51 45 37 32 27 25 29 30 25 21 18 13 12 14 21 14 10 11 10
15 18 11 11 8 6 5 11 12 5 12 16 20 48 54 56 66 69 66 57 61 56 50 45 51 51 53 55 59 58 53 49 42 38 33 28 27 24 20 21 19 16 13 12 23 15 14 12 9
12 9 8 12 5 5 6 13 17 9 13 19 20 20 47 56 66 72 66 60 63 65 58 52 50 48 55 58 57 60 58 53 47 43 37 33 31 29 28 26 26 28 21 18 20 19 12 9 12
16 14 4 5 6 7 5 10 10 8 7 5 13 14 24 49 62 61 67 64 62 66 60 59 57 53 46 54 56 58 60 59 53 49 47 41 38 38 36 33 29 30 31 27 27 22 17 14 17
3 2 12 10 9 10 3 12 13 16 13 16 15 18 20 34 54 65 59 67 60 63 68 67 57 55 58 55 52 53 58 61 60 61 57 50 44 44 43 40 37 37 32 33 32 25 21 22 18
12 12 10 10 8 2 7 11 7 12 15 20 30 39 37 32 49 59 55 57 61 68 72 71 68 64 56 53 61 57 56 54 56 59 61 56 55 48 44 37 33 36 36 37 36 26 25 18 19
Wind_Direction_500mb
90 42 352 69 60 57 47 328 341 313 346 312 131 109 117 50 170 204 150 161 167 162 162 160 158 160 161 158 153 150 147 142 144 155 164 169 168 169 166 163 163 152 145 146 140 141 141 143 151
195 16 7 39 81 89 325 273 342 312 135 105 89 106 58 60 153 149 144 159 163 166 167 165 166 168 167 164 160 156 154 146 144 148 155 162 167 164 159 153 141 140 137 145 148 147 141 142 146
99 36 46 79 91 165 174 91 19 10 174 281 120 87 94 97 142 142 147 154 165 168 169 168 163 168 170 167 166 163 161 153 151 151 152 144 138 136 143 139 143 145 141 136 136 133 137 140 141
146 44 63 57 359 292 213 297 321 316 300 21 112 73 92 93 138 140 144 155 162 166 168 167 164 166 165 165 168 168 164 159 154 156 150 141 139 133 129 123 121 128 126 132 133 134 140 140 147
67 74 70 108 322 295 299 284 294 287 279 218 71 117 67 156 181 149 142 156 164 167 167 168 166 166 166 164 167 169 165 162 162 159 155 145 138 134 128 128 132 132 139 139 137 141 139 144 163
33 90 72 94 178 244 288 275 283 292 177 166 112 97 77 152 167 170 153 162 172 172 173 175 173 175 173 181 190 181 159 162 156 153 143 137 133 131 130 144 139 136 147 138 138 135 136 141 152
117 85 141 116 165 228 227 249 283 169 151 133 136 86 145 159 158 156 160 163 165 169 181 187 185 187 192 185 184 166 158 162 155 155 130 133 130 131 136 139 141 145 132 141 147 142 143 140 150
205 103 136 203 181 235 214 249 261 258 184 143 160 162 172 171 161 164 167 165 176 210 207 199 194 184 179 169 160 159 163 165 159 142 136 132 129 123 123 121 139 141 152 151 154 159 168 155 158
190 87 236 207 134 229 162 16 110 168 143 212 211 195 173 165 165 168 176 185 194 205 202 204 193 186 182 177 151 157 165 166 159 145 141 134 122 122 126 125 134 151 166 175 200 208 217 207 205
146 150 226 169 150 163 117 232 338 110 147 90 123 152 162 165 172 177 193 204 209 199 195 196 192 190 191 165 157 162 161 155 156 143 143 125 121 117 126 125 117 121 108 118 264 241 241 255 271
158 242 274 74 139 145 140 291 343 134 185 203 158 157 167 175 184 194 208 218 211 195 199 191 194 196 184 157 162 156 152 149 146 146 141 124 124 121 110 93 76 71 100 222 10 343 303 288 244
346 22 34 89 129 90 359 293 327 223 241 179 165 166 174 186 195 201 211 202 196 203 185 185 184 184 162 158 162 161 154 146 151 148 151 144 136 129 97 75 58 50 25 15 17 10 351 24 234
22 353 50 86 147 127 292 286 272 251 207 167 169 174 179 191 200 207 214 212 204 194 189 188 182 180 169 163 164 160 160 159 159 156 158 161 152 137 43 74 40 355 12 27 18 1 275 262 281
140 84 111 109 167 178 200 272 283 118 167 173 180 187 190 196 199 207 219 217 209 204 202 188 178 182 179 177 169 165 164 172 172 174 160 168 170 157 1 85 77 33 13 5 3 40 3 279 39
62 65 0 183 177 205 217 318 152 135 184 182 189 196 199 205 207 211 215 220 217 203 202 191 183 177 175 175 171 176 168 168 185 171 167 173 168 156 254 94 69 37 24 26 41 23 71 316 135
97 71 42 160 184 168 141 230 250 170 160 193 199 202 203 211 214 216 220 223 220 213 205 196 196 184 178 175 177 173 178 169 181 183 189 201 201 197 228 74 78 24 6 33 31 19 60 56 78
12 139 161 294 222 135 138 232 248 196 165 177 199 205 208 214 220 219 222 228 224 215 212 209 198 190 178 182 177 181 180 172 189 203 202 173 200 221 246 283 334 345 4 28 22 33 22 14 227
229 184 246 246 212 222 156 263 285 255 224 221 219 204 206 212 218 216 212 218 221 212 211 213 197 194 191 196 199 198 189 172 173 189 195 132 156 210 258 249 264 301 320 315 352 333 348 340 243
144 158 86 240 212 179 219 247 257 253 237 203 187 185 194 210 216 210 208 210 214 212 205 201 208 200 203 205 199 195 204 214 201 211 206 184 180 190 230 237 257 276 297 283 300 314 312 307 56
141 156 229 281 221 175 192 260 253 235 240 213 201 195 205 208 210 211 207 209 207 206 206 204 204 202 201 197 196 205 202 216 215 216 224 207 216 244 270 264 251 258 271 255 276 283 283 217 17
170 203 199 191 146 127 38 281 228 231 220 207 214 217 210 212 209 208 207 209 208 206 206 207 205 206 201 196 201 215 219 219 218 220 226 221 240 239 260 238 251 274 257 261 246 261 251 237 73
230 205 200 129 90 270 142 269 277 196 213 202 202 207 209 207 210 209 208 209 211 210 210 206 202 201 204 206 211 215 216 217 218 220 229 239 250 254 225 228 274 309 244 265 249 222 243 174 132
234 164 201 174 125 48 208 318 270 114 218 237 209 208 210 203 209 211 211 214 217 209 210 210 210 210 209 207 213 215 216 223 222 224 237 247 239 247 235 240 263 314 249 258 220 221 246 220 174
23 109 57 60 81 309 205 169 266 188 208 225 217 207 214 214 212 213 216 214 218 216 213 209 212 214 213 212 214 219 223 226 233 236 230 237 241 242 238 245 257 281 242 226 215 210 229 199 204
95 67 17 9 26 225 4 134 250 249 217 213 193 201 210 210 211 212 219 219 219 218 218 213 212 216 213 212 217 220 227 234 236 231 235 245 231 231 244 244 248 256 253 237 223 229 234 220 235
181 156 162 201 203 260 346 229 256 269 293 215 190 203 207 214 217 219 221 226 222 223 219 220 216 215 216 218 219 223 227 234 238 238 234 230 226 229 246 245 240 246 249 241 200 229 241 225 257
183 186 191 114 21 100 237 291 305 334 126 138 142 177 207 214 219 225 225 227 226 225 226 228 225 224 221 220 223 224 227 232 236 241 240 237 237 243 243 245 239 241 252 240 211 224 225 249 260
148 165 89 12 150 240 268 290 238 278 192 249 152 188 214 216 220 227 229 233 235 231 233 237 235 235 233 231 231 231 232 235 238 241 244 244 244 248 248 251 250 244 245 234 230 232 239 267 268
85 216 55 122 126 163 180 262 216 210 215 224 243 199 219 230 223 227 231 236 241 237 234 234 238 242 240 239 240 239 240 241 244 244 246 247 247 248 248 248 261 238 231 233 236 238 246 271 273
150 177 136 127 225 177 160 271 254 212 204 192 241 257 257 249 232 227 229 230 236 239 242 242 241 238 243 244 244 245 246 247 247 247 247 247 247 249 248 245 241 241 240 231 233 235 243 260 271
Wind_Speed_850mb
8 10 5 2 8 9 5 8 11 17 10 9 22 11 15 10 5 6 21 50 40 44 42 37 35 33 32 30 29 30 30 26 24 25 27 28 26 25 23 20 20 18 19 20 20 19 17 18 20
2 5 9 6 9 6 3 2 21 11 18 39 31 22 13 4 1 20 44 32 42 40 38 36 31 30 30 28 28 28 26 23 20 21 23 23 24 22 22 22 20 20 21 18 20 18 19 21 21
5 2 8 7 3 6 6 4 18 18 5 7 13 17 9 4 14 48 29 40 38 35 33 32 30 29 29 26 25 24 23 19 18 22 21 23 23 22 23 21 23 21 19 21 24 26 22 19 18
4 8 12 7 7 3 2 10 30 33 34 13 24 13 16 12 41 26 35 36 34 32 32 32 31 28 27 26 22 22 22 21 18 21 21 23 22 22 22 22 21 24 23 23 27 26 24 22 20
7 6 8 7 6 11 11 28 37 23 36 7 2 8 8 23 17 30 30 35 34 33 31 27 27 28 25 23 19 20 22 21 20 22 21 21 21 21 22 19 19 21 21 22 19 20 18 17 19
5 4 6 2 7 4 19 36 31 27 10 13 14 15 5 22 29 34 29 29 31 32 29 26 23 22 20 17 16 20 23 23 19 20 21 19 19 18 18 18 19 18 17 17 17 16 17 17 18
4 5 3 2 12 6 11 11 15 15 12 5 27 8 18 34 35 35 31 29 32 26 25 24 23 19 16 16 19 20 28 25 19 17 16 16 16 15 15 15 17 16 13 13 15 15 14 15 14
5 6 6 8 8 7 5 5 11 14 7 31 22 10 15 47 42 33 32 34 30 18 23 23 21 19 19 16 14 26 32 26 18 14 18 18 18 18 17 16 14 13 11 10 10 11 11 14 16
13 4 4 9 11 8 9 6 6 13 36 1 18 11 39 49 46 38 33 30 27 20 23 23 20 22 20 15 19 29 31 24 16 16 23 20 21 19 17 17 15 13 10 7 6 6 8 12 15
7 4 11 13 12 4 9 4 17 8 17 3 16 25 54 48 44 41 37 34 29 25 21 21 22 22 19 16 23 31 34 23 19 23 21 22 19 13 14 13 13 12 8 4 1 7 12 12 13
5 4 3 2 15 12 9 4 13 26 10 20 41 54 50 44 40 36 35 30 29 26 22 22 21 20 16 24 27 30 28 22 24 24 16 19 15 15 14 15 13 7 3 4 12 8 10 12 16
4 7 6 6 12 8 7 3 10 26 11 28 41 56 52 47 44 41 38 36 32 24 22 20 20 20 21 30 26 28 22 21 24 19 17 12 14 11 8 8 10 14 8 6 8 25 16 8 7
8 4 14 4 13 18 17 20 12 22 26 31 45 53 49 46 42 42 36 32 33 32 25 21 19 23 25 29 23 31 21 25 20 17 16 16 10 4 6 8 10 9 14 20 15 13 9 10 6
5 22 13 4 6 9 16 11 4 14 34 43 50 54 49 47 42 42 39 36 37 33 29 22 20 21 29 28 23 30 24 24 19 15 15 13 8 2 1 2 6 16 11 13 14 25 3 11 1
6 8 9 7 10 9 12 5 6 9 36 43 52 56 50 50 46 45 32 39 39 35 31 23 20 26 29 30 29 27 25 22 22 23 14 17 7 4 3 6 9 12 11 15 6 11 14 6 8
5 7 5 3 14 5 7 10 8 10 31 43 43 45 53 52 54 48 42 37 40 36 33 30 25 28 28 31 28 26 19 20 28 24 16 12 11 7 4 5 10 10 10 14 14 9 10 16 11
9 4 6 6 15 8 7 7 19 31 22 31 42 58 58 56 58 52 47 31 42 36 36 35 34 29 26 29 23 19 21 24 25 19 9 10 13 5 10 7 6 8 8 10 9 9 11 11 4
10 4 6 7 13 9 9 18 14 20 27 24 21 54 64 58 61 53 40 31 42 39 36 37 37 33 27 29 23 20 28 18 24 17 11 6 6 11 10 15 15 12 11 7 9 6 9 6 8
11 6 4 7 6 10 15 15 25 27 27 27 27 43 59 61 54 51 40 32 37 42 40 46 42 35 34 37 31 23 33 18 25 15 12 14 6 7 13 14 19 16 16 11 10 8 9 7 2
7 10 9 1 5 14 2 24 16 16 16 34 39 39 55 56 54 57 44 37 37 39 41 47 45 38 37 36 34 20 22 19 18 19 16 20 12 7 10 14 22 20 15 12 11 11 8 4 1
9 12 14 9 14 7 2 13 17 12 28 15 35 44 42 61 60 60 51 44 36 42 44 48 49 42 37 35 33 27 22 21 22 19 21 19 11 8 6 10 12 15 16 15 16 13 11 6 8
6 32 22 12 6 4 3 9 11 12 12 13 36 36 44 56 63 59 54 49 42 38 40 44 48 44 41 39 37 34 32 27 23 23 14 18 14 10 12 14 12 12 12 13 13 8 8 2 6
22 27 25 22 8 4 7 4 10 5 12 20 28 45 50 54 63 66 61 49 40 36 43 45 47 45 41 44 41 38 39 31 23 19 21 24 21 16 17 16 14 11 14 13 12 15 9 11 6
1 10 12 11 6 5 8 11 10 10 14 11 27 47 55 58 62 67 57 52 47 42 44 48 47 48 45 46 46 46 44 39 33 27 23 24 30 26 21 17 17 11 12 18 12 13 11 9 8
7 13 4 6 3 12 11 8 19 11 13 13 29 46 55 60 64 65 60 59 57 49 45 47 47 52 53 55 57 53 51 45 37 32 27 25 29 30 25 21 18 13 12 14 21 14 10 11 10
15 18 11 11 8 6 5 11 12 5 12 16 20 48 54 56 66 69 66 57 61 56 50 45 51 51 53 55 59 58 53 49 42 38 33 28 27 24 20 21 19 16 13 12 23 15 14 12 9
12 9 8 12 5 5 6 13 17 9 13 19 20 20 47 56 66 72 66 60 63 65 58 52 50 48 55 58 57 60 58 53 47 43 37 33 31 29 28 26 26 28 21 18 20 19 12 9 12
16 14 4 5 6 7 5 10 10 8 7 5 13 14 24 49 62 61 67 64 62 66 60 59 57 53 46 54 56 58 60 59 53 49 47 41 38 38 36 33 29 30 31 27 27 22 17 14 17
3 2 12 10 9 10 3 12 13 16 13 16 15 18 20 34 54 65 59 67 60 63 68 67 57 55 58 55 52 53 58 61 60 61 57 50 44 44 43 40 37 37 32 33 32 25 21 22 18
12 12 10 10 8 2 7 11 7 12 15 20 30 39 37 32 49 59 55 57 61 68 72 71 68 64 56 53 61 57 56 54 56 59 61 56 55 48 44 37 33 36 36 37 36 26 25 18 19
Wind_Direction_850mb
90 42 352 69 60 57 47 328 341 313 346 312 131 109 117 50 170 204 150 161 167 162 162 160 158 160 161 158 153 150 147 142 144 155 164 169 168 169 166 163 163 152 145 146 140 141 141 143 151
195 16 7 39 81 89 325 273 342 312 135 105 89 106 58 60 153 149 144 159 163 166 167 165 166 168 167 164 160 156 154 146 144 148 155 162 167 164 159 153 141 140 137 145 148 147 141 142 146
99 36 46 79 91 165 174 91 19 10 174 281 120 87 94 97 142 142 147 154 165 168 169 168 163 168 170 167 166 163 161 153 151 151 152 144 138 136 143 139 143 145 141 136 136 133 137 140 141
146 44 63 57 359 292 213 297 321 316 300 21 112 73 92 93 138 140 144 155 162 166 168 167 164 166 165 165 168 168 164 159 154 156 150 141 139 133 129 123 121 128 126 132 133 134 140 140 147
67 74 70 108 322 295 299 284 294 287 279 218 71 117 67 156 181 149 142 156 164 167 167 168 166 166 166 164 167 169 165 162 162 159 155 145 138 134 128 128 132 132 139 139 137 141 139 144 163
33 90 72 94 178 244 288 275 283 292 177 166 112 97 77 152 167 170 153 162 172 172 173 175 173 175 173 181 190 181 159 162 156 153 143 137 133 131 130 144 139 136 147 138 138 135 136 141 152
117 85 141 116 165 228 227 249 283 169 151 133 136 86 145 159 158 156 160 163 165 169 181 187 185 187 192 185 184 166 158 162 155 155 130 133 130 131 136 139 141 145 132 141 147 142 143 140 150
205 103 136 203 181 235 214 249 261 258 184 143 160 162 172 171 161 164 167 165 176 210 207 199 194 184 179 169 160 159 163 165 159 142 136 132 129 123 123 121 139 141 152 151 154 159 168 155 158
190 87 236 207 134 229 162 16 110 168 143 212 211 195 173 165 165 168 176 185 194 205 202 204 193 186 182 177 151 157 165 166 159 145 141 134 122 122 126 125 134 151 166 175 200 208 217 207 205
146 150 226 169 150 163 117 232 338 110 147 90 123 152 162 165 172 177 193 204 209 199 195 196 192 190 191 165 157 162 161 155 156 143 143 125 121 117 126 125 117 121 108 118 264 241 241 255 271
158 242 274 74 139 145 140 291 343 134 185 203 158 157 167 175 184 194 208 218 211 195 199 191 194 196 184 157 162 156 152 149 146 146 141 124 124 121 110 93 76 71 100 222 10 343 303 288 244
346 22 34 89 129 90 359 293 327 223 241 179 165 166 174 186 195 201 211 202 196 203 185 185 184 184 162 158 162 161 154 146 151 148 151 144 136 129 97 75 58 50 25 15 17 10 351 24 234
22 353 50 86 147 127 292 286 272 251 207 167 169 174 179 191 200 207 214 212 204 194 189 188 182 180 169 163 164 160 160 159 159 156 158 161 152 137 43 74 40 355 12 27 18 1 275 262 281
140 84 111 109 167 178 200 272 283 118 167 173 180 187 190 196 199 207 219 217 209 204 202 188 178 182 179 177 169 165 164 172 172 174 160 168 170 157 1 85 77 33 13 5 3 40 3 279 39
62 65 0 183 177 205 217 318 152 135 184 182 189 196 199 205 207 211 215 220 217 203 202 191 183 177 175 175 171 176 168 168 185 171 167 173 168 156 254 94 69 37 24 26 41 23 71 316 135
97 71 42 160 184 168 141 230 250 170 160 193 199 202 203 211 214 216 220 223 220 213 205 196 196 184 178 175 177 173 178 169 181 183 189 201 201 197 228 74 78 24 6 33 31 19 60 56 78
12 139 161 294 222 135 138 232 248 196 165 177 199 205 208 214 220 219 222 228 224 215 212 209 198 190 178 182 177 181 180 172 189 203 202 173 200 221 246 283 334 345 4 28 22 33 22 14 227
229 184 246 246 212 222 156 263 285 255 224 221 219 204 206 212 218 216 212 218 221 212 211 213 197 194 191 196 199 198 189 172 173 189 195 132 156 210 258 249 264 301 320 315 352 333 348 340 243
144 158 86 240 212 179 219 247 257 253 237 203 187 185 194 210 216 210 208 210 214 212 205 201 208 200 203 205 199 195 204 214 201 211 206 184 180 190 230 237 257 276 297 283 300 314 312 307 56
141 156 229 281 221 175 192 260 253 235 240 213 201 195 205 208 210 211 207 209 207 206 206 204 204 202 201 197 196 205 202 216 215 216 224 207 216 244 270 264 251 258 271 255 276 283 283 217 17
170 203 199 191 146 127 38 281 228 231 220 207 214 217 210 212 209 208 207 209 208 206 206 207 205 206 201 196 201 215 219 219 218 220 226 221 240 239 260 238 251 274 257 261 246 261 251 237 73
230 205 200 129 90 270 142 269 277 196 213 202 202 207 209 207 210 209 208 209 211 210 210 206 202 201 204 206 211 215 216 217 218 220 229 239 250 254 225 228 274 309 244 265 249 222 243 174 132
234 164 201 174 125 48 208 318 270 114 218 237 209 208 210 203 209 211 211 214 217 209 210 210 210 210 209 207 213 215 216 223 222 224 237 247 239 247 235 240 263 314 249 258 220 221 246 220 174
23 109 57 60 81 309 205 169 266 188 208 225 217 207 214 214 212 213 216 214 218 216 213 209 212 214 213 212 214 219 223 226 233 236 230 237 241 242 238 245 257 281 242 226 215 210 229 199 204
95 67 17 9 26 225 4 134 250 249 217 213 193 201 210 210 211 212 219 219 219 218 218 213 212 216 213 212 217 220 227 234 236 231 235 245 231 231 244 244 248 256 253 237 223 229 234 220 235
181 156 162 201 203 260 346 229 256 269 293 215 190 203 207 214 217 219 221 226 222 223 219 220 216 215 216 218 219 223 227 234 238 238 234 230 226 229 246 245 240 246 249 241 200 229 241 225 257
183 186 191 114 21 100 237 291 305 334 126 138 142 177 207 214 219 225 225 227 226 225 226 228 225 224 221 220 223 224 227 232 236 241 240 237 237 243 243 245 239 241 252 240 211 224 225 249 260
148 165 89 12 150 240 268 290 238 278 192 249 152 188 214 216 220 227 229 233 235 231 233 237 235 235 233 231 231 231 232 235 238 241 244 244 244 248 248 251 250 244 245 234 230 232 239 267 268
85 216 55 122 126 163 180 262 216 210 215 224 243 199 219 230 223 227 231 236 241 237 234 234 238 242 240 239 240 239 240 241 244 244 246 247 247 248 248 248 261 238 231 233 236 238 246 271 273
150 177 136 127 225 177 160 271 254 212 204 192 241 257 257 249 232 227 229 230 236 239 242 242 241 238 243 244 244 245 246 247 247 247 247 247 247 249 248 245 241 241 240 231 233 235 243 260 271